period_start,C,m1,H,J0,J1,J2,J3,J4,J5,JA,JB,JC,JD,JJ,JK,JN,#
2015-02-03 00:02:11,0.27,4.28,0.00,19.63,24.60,28.08,4.90,28.90,1013.95,2041.98,2092.04,2296.82,2474.95,350.51,351.36,17.85,0000 0000 0000 0000 000000
2015-02-03 00:07:12,0.28,4.29,0.00,19.65,24.63,28.15,4.85,28.91,1013.72,2041.97,2090.14,2295.44,2473.42,349.74,350.40,17.88,0000 0000 0000 0000 000000
2015-02-03 00:12:13,0.28,4.30,0.00,19.65,24.67,28.21,4.84,29.00,1013.69,2041.84,2088.15,2293.86,2471.77,350.13,350.87,17.91,0000 0000 0000 0000 000000
2015-02-03 00:17:15,0.25,4.31,0.00,19.70,24.71,28.22,4.85,28.88,1013.70,2041.61,2085.96,2292.34,2470.14,350.15,350.52,17.94,0000 0000 0000 0000 000000
2015-02-03 00:22:16,0.22,4.32,0.00,19.75,24.74,28.25,4.83,29.08,1013.69,2041.21,2083.99,2290.73,2468.52,349.95,350.52,17.97,0000 0000 0000 0000 000000
2015-02-03 00:27:17,0.25,4.32,0.00,19.78,24.78,28.31,4.88,29.20,1013.69,2041.03,2082.07,2289.21,2466.82,349.80,350.30,18.00,0000 0000 0000 0000 000000
2015-02-03 00:32:18,0.25,4.33,0.00,19.79,24.82,28.32,4.86,28.95,1013.68,2041.00,2080.56,2287.80,2465.38,349.55,349.88,18.02,0000 0000 0000 0000 000000
2015-02-03 00:37:20,0.25,4.34,0.00,19.85,24.86,28.40,4.82,29.06,1013.66,2041.00,2079.13,2286.49,2463.84,349.94,350.47,18.05,0000 0000 0000 0000 000000
2015-02-03 00:42:21,0.30,4.35,0.00,19.88,24.89,28.40,4.84,28.86,1013.62,2041.00,2077.08,2284.91,2462.18,349.32,349.61,18.08,0000 0000 0000 0000 000000
2015-02-03 00:47:22,0.25,4.35,0.00,19.89,24.93,28.46,4.84,29.16,1013.57,2040.95,2075.44,2283.57,2460.66,349.71,349.80,18.11,0000 0000 0000 0000 000000
2015-02-03 00:52:24,0.16,4.36,0.00,19.96,24.97,28.49,4.85,29.27,1013.50,2040.60,2073.78,2282.12,2459.04,349.65,350.09,18.14,0000 0000 0000 0000 000000
2015-02-03 00:57:25,0.20,4.36,0.00,19.97,25.00,28.52,4.87,29.15,1013.37,2040.08,2072.17,2280.69,2457.54,349.84,349.92,18.17,0000 0000 0000 0000 000000
2015-02-03 01:02:26,0.23,4.37,0.00,20.02,25.03,28.55,4.86,29.12,1013.24,2040.01,2070.49,2279.31,2456.01,350.34,350.48,18.20,0000 0000 0000 0000 000000
2015-02-03 01:07:27,0.27,4.38,0.00,20.05,25.07,28.59,4.82,28.85,1013.20,2040.00,2068.82,2277.93,2454.52,350.23,350.22,18.23,0000 0000 0000 0000 000000
2015-02-03 01:12:29,0.28,4.39,0.00,20.06,25.11,28.59,4.85,29.00,1013.21,2040.00,2067.06,2276.53,2452.94,349.67,349.70,18.26,0000 0000 0000 0000 000000
2015-02-03 01:17:30,0.23,4.40,0.00,20.10,25.15,28.64,4.87,29.21,1013.21,2039.99,2065.45,2275.17,2451.50,350.03,349.95,18.29,0000 0000 0000 0000 000000
2015-02-03 01:22:31,0.28,4.40,0.00,20.11,25.18,28.67,4.89,28.82,1013.20,2039.95,2063.78,2273.78,2449.96,350.17,350.14,18.32,0000 0000 0000 0000 000000
2015-02-03 01:27:32,0.08,4.41,0.00,20.13,25.21,28.70,4.86,28.98,1013.21,2039.32,2062.42,2272.47,2448.51,349.96,349.90,18.35,0000 0000 0000 0000 000000
2015-02-03 01:32:34,0.19,4.41,0.00,20.15,25.25,28.72,4.83,29.04,1013.20,2039.04,2060.96,2271.29,2447.09,349.97,349.60,18.38,0000 0000 0000 0000 000000
2015-02-03 01:37:36,0.27,4.42,0.00,20.23,25.29,28.75,4.89,29.02,1013.20,2039.00,2059.30,2269.84,2445.64,349.70,349.47,18.41,0000 0000 0000 0000 000000
2015-02-03 01:42:37,0.27,4.43,0.00,20.26,25.32,28.78,4.88,29.11,1013.19,2039.00,2057.56,2268.48,2444.13,350.60,350.36,18.43,0000 0000 0000 0000 000000
2015-02-03 01:47:38,0.25,4.44,0.00,20.29,25.35,28.81,4.79,29.05,1013.18,2038.97,2055.89,2267.14,2442.70,349.55,349.19,18.46,0000 0000 0000 0000 000000
2015-02-03 01:52:39,0.15,4.44,0.00,20.31,25.39,28.83,4.84,28.92,1013.19,2038.66,2054.30,2265.75,2441.26,349.77,349.70,18.49,0000 0000 0000 0000 000000
2015-02-03 01:57:41,0.21,4.45,0.00,20.36,25.42,28.88,4.80,29.05,1013.20,2038.22,2052.62,2264.46,2439.79,349.40,349.25,18.52,0000 0000 0000 0000 000000
2015-02-03 02:02:42,0.21,4.45,0.00,20.39,25.46,28.87,4.85,28.99,1013.17,2038.04,2051.01,2263.20,2438.42,350.27,349.93,18.55,0000 0000 0000 0000 000000
2015-02-03 02:07:43,0.27,4.46,0.00,20.41,25.49,28.93,4.85,28.86,1012.84,2038.00,2049.31,2261.75,2436.95,349.84,349.42,18.58,0000 0000 0000 0000 000000
2015-02-03 02:12:45,0.27,4.47,0.00,20.45,25.52,28.94,4.84,28.94,1012.72,2038.00,2047.61,2260.52,2435.58,349.62,349.26,18.61,0000 0000 0000 0000 000000
2015-02-03 02:17:46,0.19,4.47,0.00,20.48,25.56,28.96,4.84,28.93,1012.73,2037.99,2046.55,2259.33,2434.21,349.93,349.17,18.64,0000 0000 0000 0000 000000
2015-02-03 02:22:47,0.24,4.48,0.00,20.53,25.59,29.02,4.79,28.86,1012.74,2037.94,2045.00,2258.00,2432.82,349.76,348.98,18.67,0000 0000 0000 0000 000000
2015-02-03 02:27:48,0.23,4.49,0.00,20.55,25.62,29.08,4.82,29.11,1012.75,2037.80,2043.29,2256.66,2431.51,350.23,349.30,18.70,0000 0000 0000 0000 000000
2015-02-03 02:32:50,0.12,4.49,0.00,20.59,25.66,29.12,4.88,28.93,1012.75,2037.33,2041.70,2255.46,2430.19,350.13,349.20,18.73,0000 0000 0000 0000 000000
2015-02-03 02:37:51,0.19,4.50,0.00,20.64,25.69,29.13,4.83,28.73,1012.72,2037.08,2040.28,2254.27,2428.81,349.81,349.14,18.76,0000 0000 0000 0000 000000
2015-02-03 02:42:52,0.21,4.50,0.00,20.66,25.72,29.17,4.92,28.98,1012.73,2037.00,2038.93,2253.06,2427.57,351.01,350.18,18.79,0000 0000 0000 0000 000000
2015-02-03 02:47:53,0.24,4.51,0.00,20.68,25.76,29.20,4.84,28.82,1012.72,2037.00,2037.51,2251.87,2426.27,350.13,348.95,18.82,0000 0000 0000 0000 000000
2015-02-03 02:52:55,0.23,4.52,0.00,20.69,25.79,29.24,4.84,28.72,1012.72,2037.00,2036.00,2250.65,2424.88,350.09,349.17,18.84,0000 0000 0000 0000 000000
2015-02-03 02:57:56,0.24,4.52,0.00,20.69,25.82,29.27,4.86,28.77,1012.71,2036.94,2034.66,2249.46,2423.64,350.39,349.47,18.87,0000 0000 0000 0000 000000
2015-02-03 03:02:57,0.08,4.53,0.00,20.74,25.86,29.29,4.89,28.82,1012.72,2036.49,2033.40,2248.33,2422.37,350.49,349.56,18.90,0000 0000 0000 0000 000000
2015-02-03 03:07:58,0.15,4.53,0.00,20.79,25.89,29.31,4.89,28.77,1012.79,2036.09,2032.15,2247.21,2421.01,350.69,349.56,18.93,0000 0000 0000 0000 000000
2015-02-03 03:13:00,0.23,4.54,0.00,20.86,25.92,29.35,4.84,28.99,1012.87,2036.00,2030.84,2245.97,2419.65,350.11,348.97,18.96,0000 0000 0000 0000 000000
2015-02-03 03:18:01,0.27,4.55,0.00,20.89,25.96,29.41,4.86,28.89,1013.08,2036.00,2029.42,2244.62,2418.07,350.27,349.28,18.99,0000 0000 0000 0000 000000
2015-02-03 03:23:02,0.25,4.55,0.00,20.93,25.99,29.40,4.85,28.95,1013.16,2035.96,2027.83,2243.28,2416.58,349.79,348.97,19.02,0000 0000 0000 0000 000000
2015-02-03 03:28:04,0.22,4.56,0.00,20.91,26.01,29.47,4.87,29.02,1013.11,2035.83,2026.25,2241.84,2415.12,349.71,348.83,19.05,0000 0000 0000 0000 000000
2015-02-03 03:33:05,0.17,4.57,0.00,20.95,26.05,29.49,4.80,28.77,1013.13,2035.23,2024.59,2240.48,2413.53,349.49,348.63,19.08,0000 0000 0000 0000 000000
2015-02-03 03:38:06,0.24,4.57,0.00,20.97,26.07,29.45,4.84,29.08,1013.20,2035.03,2022.85,2239.08,2411.90,350.10,348.89,19.11,0000 0000 0000 0000 000000
2015-02-03 03:43:08,0.28,4.58,0.00,20.97,26.10,29.49,4.90,29.03,1013.20,2035.00,2021.07,2237.73,2410.30,350.15,349.10,19.14,0000 0000 0000 0000 000000
2015-02-03 03:48:09,0.28,4.59,0.00,20.99,26.13,29.49,4.83,29.04,1013.19,2035.00,2019.37,2236.34,2408.75,349.41,348.59,19.17,0000 0000 0000 0000 000000
2015-02-03 03:53:11,0.28,4.60,0.00,20.98,26.16,29.53,4.82,28.71,1013.20,2034.96,2017.62,2234.86,2407.22,349.54,348.60,19.20,0000 0000 0000 0000 000000
2015-02-03 03:58:12,0.24,4.61,0.00,20.99,26.18,29.55,4.83,28.86,1013.20,2034.88,2015.90,2233.52,2405.70,349.60,348.56,19.23,0000 0000 0000 0000 000000
2015-02-03 04:03:13,0.20,4.61,0.00,20.97,26.21,29.54,4.89,28.68,1013.32,2034.56,2014.16,2232.08,2404.19,350.80,349.64,19.25,0000 0000 0000 0000 000000
2015-02-03 04:08:14,0.23,4.62,0.00,21.01,26.23,29.57,4.88,28.65,1013.66,2034.07,2012.32,2230.60,2402.62,350.40,349.31,19.28,0000 0000 0000 0000 000000
2015-02-03 04:13:16,0.28,4.63,0.00,21.03,26.25,29.60,4.81,28.77,1013.69,2034.01,2010.49,2229.16,2401.02,349.54,348.54,19.31,0000 0000 0000 0000 000000
2015-02-03 04:18:17,0.30,4.63,0.00,20.96,26.27,29.56,4.83,28.73,1013.70,2034.00,2008.61,2227.73,2399.60,349.43,348.55,19.34,0000 0000 0000 0000 000000
2015-02-03 04:23:19,0.28,4.64,0.00,21.04,26.30,29.57,4.90,28.85,1013.73,2034.00,2006.80,2226.39,2398.06,350.53,349.30,19.37,0000 0000 0000 0000 000000
2015-02-03 04:28:19,0.24,4.65,0.00,21.06,26.32,29.62,4.88,28.92,1013.95,2033.99,2005.30,2225.02,2396.57,350.04,349.07,19.40,0000 0000 0000 0000 000000
2015-02-03 04:33:21,0.27,4.66,0.00,21.02,26.34,29.60,4.83,28.85,1014.14,2033.99,2003.72,2223.74,2395.12,349.90,348.99,19.43,0000 0000 0000 0000 000000
2015-02-03 04:38:22,0.26,4.67,0.00,21.01,26.36,29.63,4.83,28.80,1014.14,2033.93,2002.05,2222.38,2393.60,350.55,349.87,19.46,0000 0000 0000 0000 000000
2015-02-03 04:43:23,0.19,4.67,0.00,21.04,26.37,29.60,4.87,28.73,1014.17,2033.60,2000.39,2220.92,2392.07,350.19,349.29,19.49,0000 0000 0000 0000 000000
2015-02-03 04:48:24,0.22,4.68,0.00,21.03,26.40,29.60,4.86,28.58,1014.17,2033.31,1998.70,2219.60,2390.60,350.41,349.69,19.52,0000 0000 0000 0000 000000
2015-02-03 04:53:26,0.24,4.69,0.00,21.10,26.41,29.63,4.91,28.76,1014.17,2033.09,1996.89,2218.29,2389.13,350.49,349.57,19.55,0000 0000 0000 0000 000000
2015-02-03 04:58:27,0.28,4.69,0.00,21.09,26.43,29.63,4.86,28.83,1014.17,2033.01,1995.19,2216.80,2387.63,350.42,349.52,19.58,0000 0000 0000 0000 000000
2015-02-03 05:03:28,0.27,4.70,0.00,21.11,26.45,29.66,4.85,28.78,1014.17,2033.00,1993.62,2215.54,2386.19,349.55,348.51,19.61,0000 0000 0000 0000 000000
2015-02-03 05:08:29,0.25,4.71,0.00,21.09,26.46,29.64,4.78,28.82,1014.17,2033.00,1991.97,2214.21,2384.77,349.39,348.64,19.64,0000 0000 0000 0000 000000
2015-02-03 05:13:30,0.27,4.72,0.00,21.11,26.48,29.61,4.87,28.80,1014.02,2033.00,1990.31,2212.89,2383.35,350.41,349.45,19.66,0000 0000 0000 0000 000000
2015-02-03 05:18:32,0.30,4.73,0.00,21.12,26.50,29.67,4.86,28.63,1013.74,2033.00,1988.61,2211.53,2381.85,349.94,348.75,19.69,0000 0000 0000 0000 000000
2015-02-03 05:23:33,0.25,4.73,0.00,21.13,26.51,29.72,4.82,28.67,1013.69,2032.98,1986.88,2210.26,2380.54,349.32,348.50,19.72,0000 0000 0000 0000 000000
2015-02-03 05:28:35,0.24,4.74,0.00,21.16,26.52,29.74,4.83,28.68,1013.70,2032.97,1985.31,2208.91,2379.11,349.78,348.75,19.75,0000 0000 0000 0000 000000
2015-02-03 05:33:36,0.29,4.75,0.00,21.13,26.55,29.70,4.88,28.63,1013.70,2032.91,1983.66,2207.60,2377.66,350.04,348.94,19.78,0000 0000 0000 0000 000000
2015-02-03 05:38:37,0.22,4.76,0.00,21.17,26.56,29.76,4.85,28.75,1013.70,2032.81,1982.16,2206.29,2376.30,350.41,349.22,19.81,0000 0000 0000 0000 000000
2015-02-03 05:43:39,0.15,4.76,0.00,21.19,26.57,29.75,4.87,28.70,1013.71,2032.30,1980.58,2204.92,2374.79,350.29,349.18,19.84,0000 0000 0000 0000 000000
2015-02-03 05:48:40,0.25,4.77,0.00,21.22,26.58,29.78,4.84,28.74,1013.70,2032.11,1979.04,2203.67,2373.39,350.14,348.87,19.87,0000 0000 0000 0000 000000
2015-02-03 05:53:42,0.24,4.78,0.00,21.17,26.60,29.79,4.81,28.81,1013.73,2032.03,1977.40,2202.37,2371.96,349.92,348.65,19.90,0000 0000 0000 0000 000000
2015-02-03 05:58:43,0.25,4.78,0.00,21.21,26.62,29.80,4.83,28.57,1013.81,2032.02,1975.85,2201.07,2370.67,350.07,348.93,19.93,0000 0000 0000 0000 000000
2015-02-03 06:03:44,0.25,4.79,0.00,21.20,26.63,29.81,4.79,28.60,1013.98,2032.00,1974.28,2199.85,2369.27,350.25,349.01,19.96,0000 0000 0000 0000 000000
2015-02-03 06:08:45,0.30,4.80,0.00,21.18,26.65,29.83,4.80,28.68,1014.14,2032.00,1972.62,2198.52,2367.87,349.40,348.49,19.99,0000 0000 0000 0000 000000
2015-02-03 06:13:47,0.25,4.81,0.00,21.19,26.66,29.81,4.89,28.68,1014.15,2032.00,1971.02,2197.32,2366.63,350.46,349.44,20.02,0000 0000 0000 0000 000000
2015-02-03 06:18:48,0.25,4.81,0.00,21.21,26.67,29.82,4.80,28.60,1014.17,2032.00,1969.43,2195.94,2365.24,349.78,349.02,20.05,0000 0000 0000 0000 000000
2015-02-03 06:23:49,0.27,4.82,0.00,21.22,26.70,29.83,4.82,28.76,1014.12,2032.00,1967.86,2194.69,2363.87,349.93,348.83,20.07,0000 0000 0000 0000 000000
2015-02-03 06:28:51,0.25,4.83,0.00,21.24,26.70,29.85,4.89,28.77,1013.96,2031.99,1966.37,2193.51,2362.53,350.59,349.45,20.10,0000 0000 0000 0000 000000
2015-02-03 06:33:52,0.26,4.84,0.00,21.23,26.72,29.86,4.82,28.68,1014.09,2031.99,1964.71,2192.18,2361.05,349.79,348.60,20.13,0000 0000 0000 0000 000000
2015-02-03 06:38:53,0.26,4.85,0.00,21.25,26.72,29.77,4.85,28.78,1014.13,2031.97,1963.19,2190.83,2359.68,349.83,348.88,20.16,0000 0000 0000 0000 000000
2015-02-03 06:43:55,0.27,4.85,0.00,21.27,26.75,29.76,4.86,28.82,1014.09,2031.93,1961.60,2189.64,2358.28,350.18,349.14,20.19,0000 0000 0000 0000 000000
2015-02-03 06:48:56,0.20,4.86,0.00,21.27,26.75,29.80,4.78,28.63,1014.11,2031.75,1959.98,2188.35,2356.88,349.77,348.59,20.22,0000 0000 0000 0000 000000
2015-02-03 06:53:57,0.22,4.87,0.00,21.23,26.76,29.82,4.81,28.68,1014.14,2031.52,1958.43,2187.08,2355.52,349.30,348.12,20.25,0000 0000 0000 0000 000000
2015-02-03 06:58:58,0.22,4.87,0.00,21.21,26.77,29.77,4.83,28.77,1014.17,2031.25,1956.82,2185.76,2354.18,349.85,349.09,20.28,0000 0000 0000 0000 000000
2015-02-03 07:04:00,0.26,4.88,0.00,21.24,26.78,29.78,4.83,28.67,1014.17,2031.26,1955.35,2184.59,2352.82,350.23,348.75,20.31,0000 0000 0000 0000 000000
2015-02-03 07:09:01,0.23,4.89,0.00,21.26,26.80,29.87,4.80,28.86,1014.17,2031.08,1953.64,2183.30,2351.50,350.12,349.03,20.34,0000 0000 0000 0000 000000
2015-02-03 07:14:03,0.22,4.89,0.00,21.27,26.80,29.80,4.84,28.77,1014.17,2031.03,1952.09,2182.02,2350.11,350.37,349.17,20.37,0000 0000 0000 0000 000000
2015-02-03 07:19:04,0.29,4.90,0.00,21.29,26.81,29.84,4.88,28.71,1014.32,2031.03,1950.54,2180.81,2348.73,350.26,349.21,20.40,0000 0000 0000 0000 000000
2015-02-03 07:24:05,0.25,4.91,0.00,21.25,26.82,29.84,4.85,28.72,1014.47,2031.03,1949.00,2179.63,2347.53,349.90,348.93,20.43,0000 0000 0000 0000 000000
2015-02-03 07:29:06,0.25,4.92,0.00,21.30,26.82,29.80,4.80,28.83,1014.45,2031.00,1947.49,2178.37,2346.12,349.70,348.64,20.45,0000 0000 0000 0000 000000
2015-02-03 07:34:07,0.26,4.93,0.00,21.30,26.85,29.80,4.84,28.79,1014.56,2031.00,1945.86,2177.08,2344.71,349.39,348.38,20.48,0000 0000 0000 0000 000000
2015-02-03 07:39:09,0.29,4.93,0.00,21.32,26.85,29.76,4.79,28.70,1014.62,2031.00,1944.32,2175.74,2343.36,349.86,348.85,20.51,0000 0000 0000 0000 000000
2015-02-03 07:44:10,0.25,4.94,0.00,21.33,26.85,29.74,4.87,28.63,1014.66,2031.00,1942.72,2174.64,2341.96,350.57,349.44,20.54,0000 0000 0000 0000 000000
2015-02-03 07:49:11,0.24,4.95,0.00,21.33,26.87,29.75,4.75,28.67,1014.66,2030.99,1941.23,2173.50,2340.68,349.41,348.59,20.57,0000 0000 0000 0000 000000
2015-02-03 07:54:12,0.25,4.96,0.00,21.30,26.87,29.81,4.81,28.87,1014.67,2030.99,1939.70,2172.30,2339.35,349.66,348.70,20.60,0000 0000 0000 0000 000000
2015-02-03 07:59:13,0.23,4.96,0.00,21.28,26.87,29.74,4.87,28.75,1014.68,2030.98,1938.22,2171.07,2337.98,350.23,349.30,20.63,0000 0000 0000 0000 000000
2015-02-03 08:04:15,0.29,4.97,0.00,21.35,26.89,29.82,4.84,28.63,1014.70,2030.99,1936.64,2169.82,2336.71,349.61,348.60,20.66,0000 0000 0000 0000 000000
2015-02-03 08:09:16,0.23,4.98,0.00,21.32,26.90,29.80,4.80,28.78,1015.00,2030.98,1935.22,2168.69,2335.50,349.84,348.95,20.69,0000 0000 0000 0000 000000
2015-02-03 08:14:17,0.25,4.99,0.00,21.33,26.90,29.90,4.84,28.85,1015.14,2030.97,1933.68,2167.55,2334.15,349.86,348.91,20.72,0000 0000 0000 0000 000000
2015-02-03 08:19:19,0.23,4.99,0.00,21.31,26.90,29.84,4.77,28.71,1015.13,2030.94,1932.23,2166.37,2332.80,349.87,348.93,20.75,0000 0000 0000 0000 000000
2015-02-03 08:24:20,0.23,5.00,0.00,21.35,26.92,29.92,4.86,28.79,1015.15,2030.85,1930.76,2165.11,2331.50,349.82,348.90,20.78,0000 0000 0000 0000 000000
2015-02-03 08:29:21,0.17,5.01,0.00,21.37,26.92,29.86,4.82,28.85,1015.12,2030.56,1929.38,2163.86,2330.17,349.48,348.68,20.81,0000 0000 0000 0000 000000
2015-02-03 08:34:23,0.22,5.01,0.00,21.34,26.92,29.89,4.80,28.95,1014.95,2030.28,1927.82,2162.73,2328.89,349.90,348.97,20.84,0000 0000 0000 0000 000000
2015-02-03 08:39:24,0.22,5.02,0.00,21.36,26.92,29.91,4.84,29.05,1014.85,2030.16,1926.38,2161.59,2327.63,349.79,348.96,20.87,0000 0000 0000 0000 000000
2015-02-03 08:44:25,0.23,5.03,0.00,21.36,26.93,29.90,4.85,28.92,1014.75,2030.10,1924.87,2160.43,2326.38,350.05,349.05,20.89,0000 0000 0000 0000 000000
2015-02-03 08:49:27,0.21,5.03,0.00,21.34,26.94,29.94,4.85,28.98,1014.73,2030.03,1923.57,2159.36,2325.17,349.67,348.76,20.92,0000 0000 0000 0000 000000
2015-02-03 08:54:28,0.22,5.04,0.00,21.34,26.95,29.94,4.81,29.10,1014.66,2030.04,1922.16,2158.17,2323.95,350.23,349.13,20.95,0000 0000 0000 0000 000000
2015-02-03 08:59:30,0.27,5.05,0.00,21.33,26.95,29.95,4.85,28.93,1014.66,2030.04,1920.72,2157.00,2322.64,350.12,349.05,20.98,0000 0000 0000 0000 000000
2015-02-03 09:04:31,0.22,5.05,0.00,21.25,26.95,29.93,4.88,28.90,1014.67,2030.02,1919.42,2155.91,2321.44,350.36,349.52,21.01,0000 0000 0000 0000 000000
2015-02-03 09:09:32,0.22,5.06,0.00,21.22,26.95,29.96,4.83,29.02,1015.00,2030.02,1918.07,2154.84,2320.35,349.64,349.00,21.04,0000 0000 0000 0000 000000
2015-02-03 09:14:34,0.24,5.07,0.00,21.19,26.95,29.91,4.83,28.78,1015.18,2030.02,1916.69,2153.77,2319.14,349.81,349.24,21.07,0000 0000 0000 0000 000000
2015-02-03 09:19:35,0.23,5.07,0.00,21.23,26.95,29.87,4.89,28.74,1015.17,2030.01,1915.37,2152.74,2317.90,350.04,349.34,21.10,0000 0000 0000 0000 000000
2015-02-03 09:24:36,0.21,5.08,0.00,21.17,26.95,29.83,4.84,28.76,1015.17,2030.01,1914.00,2151.70,2316.82,350.10,349.42,21.13,0000 0000 0000 0000 000000
2015-02-03 09:29:37,0.26,5.09,0.00,21.14,26.95,29.78,4.88,28.76,1015.17,2030.04,1912.65,2150.65,2315.70,350.46,349.76,21.16,0000 0000 0000 0000 000000
2015-02-03 09:34:38,0.21,5.09,0.00,21.13,26.94,29.71,4.85,28.38,1015.20,2030.02,1911.24,2149.60,2314.62,350.04,349.38,21.19,0000 0000 0000 0000 000000
2015-02-03 09:39:40,0.25,5.10,0.00,21.14,26.92,29.68,4.87,28.68,1015.57,2030.03,1909.78,2148.56,2313.50,350.14,349.52,21.22,0000 0000 0000 0000 000000
2015-02-03 09:44:41,0.20,5.11,0.00,21.11,26.92,29.75,4.83,28.76,1015.64,2030.01,1908.59,2147.50,2312.35,349.78,349.28,21.25,0000 0000 0000 0000 000000
2015-02-03 09:49:42,0.21,5.11,0.00,21.11,26.92,29.73,4.86,28.84,1015.64,2030.02,1907.45,2146.51,2311.23,349.97,349.63,21.28,0000 0000 0000 0000 000000
2015-02-03 09:54:44,0.20,5.12,0.00,21.12,26.92,29.70,4.83,28.82,1015.64,2030.02,1906.08,2145.51,2310.13,350.03,349.58,21.30,0000 0000 0000 0000 000000
2015-02-03 09:59:45,0.22,5.13,0.00,21.12,26.90,29.73,4.82,28.87,1015.65,2030.03,1904.87,2144.53,2309.00,349.67,349.31,21.33,0000 0000 0000 0000 000000
2015-02-03 10:04:46,0.24,5.13,0.00,21.11,26.90,29.61,4.81,28.79,1015.50,2030.02,1903.62,2143.47,2307.88,349.43,349.04,21.36,0000 0000 0000 0000 000000
2015-02-03 10:09:48,0.20,5.14,0.00,21.15,26.90,29.69,4.88,29.13,1015.16,2030.02,1902.42,2142.47,2306.82,350.38,349.82,21.39,0000 0000 0000 0000 000000
2015-02-03 10:14:48,0.22,5.15,0.00,21.14,26.89,29.74,4.81,29.14,1015.15,2030.02,1901.15,2141.42,2305.70,349.90,349.28,21.42,0000 0000 0000 0000 000000
2015-02-03 10:19:50,0.20,5.15,0.00,21.14,26.87,29.80,4.85,29.09,1015.15,2030.02,1899.91,2140.48,2304.64,349.76,349.14,21.45,0000 0000 0000 0000 000000
2015-02-03 10:24:51,0.24,5.16,0.00,21.11,26.87,29.82,4.88,29.18,1015.12,2030.03,1898.63,2139.51,2303.53,350.38,349.88,21.48,0000 0000 0000 0000 000000
2015-02-03 10:29:52,0.20,5.16,0.00,21.06,26.87,29.77,4.91,28.86,1015.15,2030.03,1897.42,2138.51,2302.54,350.78,350.19,21.51,0000 0000 0000 0000 000000
2015-02-03 10:34:54,0.21,5.17,0.00,21.03,26.85,29.70,4.89,29.24,1015.15,2030.04,1896.13,2137.53,2301.48,350.08,349.48,21.54,0000 0000 0000 0000 000000
2015-02-03 10:39:55,0.25,5.18,0.00,20.99,26.85,29.73,4.79,29.31,1015.15,2030.02,1894.68,2136.45,2300.34,349.75,349.29,21.57,0000 0000 0000 0000 000000
2015-02-03 10:44:56,0.22,5.19,0.00,20.90,26.83,29.62,4.85,29.13,1015.17,2030.08,1893.44,2135.47,2299.18,349.60,349.37,21.60,0000 0000 0000 0000 000000
2015-02-03 10:49:57,0.19,5.19,0.00,20.88,26.82,29.59,4.92,29.07,1015.32,2030.09,1892.27,2134.55,2298.20,350.37,350.16,21.63,0000 0000 0000 0000 000000
2015-02-03 10:54:59,0.20,5.20,0.00,20.81,26.81,29.56,4.97,29.09,1015.16,2030.06,1890.96,2133.54,2297.07,350.11,350.12,21.66,0000 0000 0000 0000 000000
2015-02-03 11:00:00,0.25,5.20,0.00,20.75,26.79,29.47,4.87,29.14,1015.16,2030.11,1889.68,2132.57,2296.02,350.43,350.13,21.69,0000 0000 0000 0000 000000
2015-02-03 11:05:01,0.22,5.21,0.00,20.73,26.77,29.53,4.90,28.98,1015.39,2030.27,1888.51,2131.64,2294.98,350.07,349.98,21.71,0000 0000 0000 0000 000000
2015-02-03 11:10:02,0.28,5.22,0.00,20.68,26.76,29.51,4.90,29.01,1015.64,2030.67,1887.36,2130.73,2293.95,350.31,350.32,21.74,0000 0000 0000 0000 000000
2015-02-03 11:15:03,0.24,5.23,0.00,20.64,26.74,29.46,4.82,28.86,1015.66,2030.88,1886.06,2129.77,2292.93,350.08,350.27,21.77,0000 0000 0000 0000 000000
2015-02-03 11:20:05,0.21,5.23,0.00,20.64,26.71,29.46,4.91,29.12,1015.56,2030.89,1884.80,2128.83,2291.88,350.90,350.92,21.80,0000 0000 0000 0000 000000
2015-02-03 11:25:06,0.22,5.24,0.00,20.64,26.70,29.40,4.84,29.11,1015.24,2030.96,1883.60,2127.90,2290.91,349.44,349.62,21.83,0000 0000 0000 0000 000000
2015-02-03 11:30:07,0.21,5.25,0.00,20.57,26.67,29.39,4.86,29.21,1015.53,2030.98,1882.41,2126.95,2289.84,350.47,350.63,21.86,0000 0000 0000 0000 000000
2015-02-03 11:35:08,0.19,5.25,0.00,20.53,26.65,29.38,4.91,29.24,1015.64,2030.98,1881.19,2126.05,2288.88,350.41,350.65,21.89,0000 0000 0000 0000 000000
2015-02-03 11:40:10,0.22,5.26,0.00,20.50,26.63,29.42,4.83,29.12,1015.65,2030.99,1879.86,2125.14,2287.96,350.00,350.31,21.92,0000 0000 0000 0000 000000
2015-02-03 11:45:11,0.22,5.27,0.00,20.49,26.61,29.34,4.93,28.99,1015.97,2030.99,1878.60,2124.23,2286.99,350.56,350.92,21.95,0000 0000 0000 0000 000000
2015-02-03 11:50:13,0.21,5.27,0.00,20.47,26.59,29.31,4.90,29.05,1016.13,2030.99,1877.40,2123.29,2285.97,349.94,350.52,21.98,0000 0000 0000 0000 000000
2015-02-03 11:55:14,0.19,5.28,0.00,20.45,26.57,29.28,4.84,28.90,1016.13,2031.01,1876.33,2122.43,2285.00,349.76,350.32,22.01,0000 0000 0000 0000 000000
2015-02-03 12:00:15,0.19,5.28,0.00,20.43,26.55,29.22,4.91,29.08,1016.13,2031.02,1875.20,2121.57,2284.04,350.26,350.65,22.04,0000 0000 0000 0000 000000
2015-02-03 12:05:17,0.21,5.29,0.00,20.45,26.52,29.24,4.89,29.10,1016.45,2031.06,1873.97,2120.66,2283.04,349.90,350.59,22.07,0000 0000 0000 0000 000000
2015-02-03 12:10:18,0.27,5.30,0.00,20.48,26.50,29.20,4.86,28.81,1016.62,2031.30,1872.79,2119.76,2282.05,350.30,351.08,22.10,0000 0000 0000 0000 000000
2015-02-03 12:15:19,0.21,5.30,0.00,20.45,26.48,29.16,4.80,28.86,1016.63,2031.37,1871.60,2118.83,2281.03,349.25,349.97,22.12,0000 0000 0000 0000 000000
2015-02-03 12:20:21,0.25,5.31,0.00,20.42,26.46,29.12,4.79,28.89,1017.00,2031.53,1870.33,2117.91,2280.06,349.30,350.35,22.15,0000 0000 0000 0000 000000
2015-02-03 12:25:22,0.25,5.32,0.00,20.38,26.43,29.07,4.87,28.82,1017.10,2031.85,1869.19,2117.01,2279.08,350.03,351.01,22.18,0000 0000 0000 0000 000000
2015-02-03 12:30:23,0.23,5.33,0.00,20.41,26.41,29.02,4.81,28.78,1017.10,2031.96,1867.96,2116.10,2278.05,350.23,350.90,22.21,0000 0000 0000 0000 000000
2015-02-03 12:35:24,0.22,5.33,0.00,20.34,26.39,29.01,4.89,28.76,1017.10,2031.97,1866.76,2115.16,2277.09,350.05,350.95,22.24,0000 0000 0000 0000 000000
2015-02-03 12:40:26,0.21,5.34,0.00,20.34,26.36,29.03,4.83,28.91,1017.10,2031.99,1865.60,2114.26,2276.11,349.54,350.54,22.27,0000 0000 0000 0000 000000
2015-02-03 12:45:27,0.19,5.34,0.00,20.32,26.34,28.93,4.88,28.82,1017.09,2031.99,1864.57,2113.46,2275.16,349.83,350.85,22.30,0000 0000 0000 0000 000000
2015-02-03 12:50:28,0.19,5.35,0.00,20.33,26.32,28.97,4.87,28.99,1017.10,2031.99,1863.45,2112.64,2274.25,349.73,350.85,22.33,0000 0000 0000 0000 000000
2015-02-03 12:55:30,0.19,5.36,0.00,20.36,26.30,28.99,4.92,29.18,1017.11,2031.99,1862.25,2111.72,2273.31,350.46,351.53,22.36,0000 0000 0000 0000 000000
2015-02-03 13:00:31,0.16,5.36,0.00,20.28,26.28,28.93,4.91,28.82,1017.19,2032.00,1861.07,2110.98,2272.41,350.20,351.41,22.39,0000 0000 0000 0000 000000